Change the Weather History Date:

Thursday, September 27, 2012

  Actual Average Record
Temperature  
Mean Temperature 66 °F 62 °F  
Max Temperature 76 °F 74 °F 91 °F (1998)
Min Temperature 56 °F 50 °F 37 °F (1942)
Degree Days  
Heating Degree Days 0 5  
Month to date heating degree days 70 59  
Since 1 July heating degree days 70 64  
Cooling Degree Days 1 2  
Month to date cooling degree days 119 122  
Year to date cooling degree days 1520 1092  
Growing Degree Days 16 (Base 50)    
Moisture  
Dew Point 50 °F    
Average Humidity 62    
Maximum Humidity 86    
Minimum Humidity 38    
Precipitation  
Precipitation 0.00 in 0.10 in 2.18 in (1916)
Month to date precipitation 2.89 2.62  
Year to date precipitation 20.62 28.27  
Snow  
Snow 0.00 in 0.00 in 0.00 in ()
Month to date snowfall 0.0 0.0  
Since 1 July snowfall 0.0 0.0  
Since 1 September snowfall 0.0 0.0  
Snow Depth 0.00 in    
Sea Level Pressure  
Sea Level Pressure 30.15 in    
Wind  
Wind Speed 7 mph (NNE)    
Max Wind Speed 14 mph    
Max Gust Speed 16 mph    
Visibility 10 miles    
Events      
T = Trace of Precipitation, MM = Missing Value Source: NWS Daily Summary

Daily Weather History Graph

Daily Weather History Graph

Search for Another Location

Airport or City:

Trip Planner

Search our weather history database for the weather conditions in past years. The results will help you decide how hot, cold, wet, or windy it might be!

Date:

Astronomy

Sep. 27, 2012 Rise Set
Actual Time 6:51 AM CDT 6:46 PM CDT
Civil Twilight 6:24 AM CDT 7:13 PM CDT
Nautical Twilight 5:53 AM CDT 7:45 PM CDT
Astronomical Twilight 5:21 AM CDT 8:16 PM CDT
Moon 5:18 PM CDT (9/27) 4:20 AM CDT (9/27)
Length of Visible Light 12h 49m
Length of Day
11h 55m
Waxing Gibbous, 94% of the Moon is Illuminated
Sep 27
Waxing Gibbous
Sep 29
Full
Oct 8
Last Quarter
Oct 15
New
Oct 21
First Quarter

Hourly Weather History & Observations

Time (CDT) Temp. Dew Point Humidity Pressure Visibility Wind Dir Wind Speed Gust Speed Precip Events Conditions
12:52 AM 61.0 °F 55.0 °F 81% 30.09 in 10.0 mi NE 8.1 mph - N/A   Mostly Cloudy
1:52 AM 59.0 °F 53.1 °F 81% 30.11 in 10.0 mi NE 6.9 mph - N/A   Clear
2:45 AM 57.2 °F 53.6 °F 88% 30.11 in 10.0 mi NE 6.9 mph - N/A   Mostly Cloudy
2:52 AM 57.9 °F 53.1 °F 84% 30.11 in 10.0 mi NE 6.9 mph - N/A   Mostly Cloudy
3:52 AM 59.0 °F 52.0 °F 78% 30.13 in 10.0 mi NE 6.9 mph - N/A   Overcast
4:06 AM 59.0 °F 51.8 °F 77% 30.14 in 10.0 mi NE 9.2 mph - N/A   Overcast
4:52 AM 59.0 °F 52.0 °F 78% 30.14 in 10.0 mi NE 9.2 mph - N/A   Overcast
5:52 AM 59.0 °F 51.1 °F 75% 30.16 in 10.0 mi NE 8.1 mph - N/A   Overcast
6:52 AM 59.0 °F 48.0 °F 67% 30.18 in 10.0 mi ENE 9.2 mph - N/A   Overcast
7:52 AM 59.0 °F 48.9 °F 69% 30.18 in 10.0 mi NE 8.1 mph - N/A   Overcast
8:52 AM 59.0 °F 48.9 °F 69% 30.19 in 10.0 mi ENE 10.4 mph - N/A   Overcast
9:52 AM 61.0 °F 48.0 °F 62% 30.19 in 10.0 mi ENE 9.2 mph - N/A   Overcast
10:52 AM 63.0 °F 48.0 °F 58% 30.20 in 10.0 mi East 5.8 mph - N/A   Overcast
11:52 AM 68.0 °F 48.9 °F 50% 30.18 in 10.0 mi Calm Calm - N/A   Scattered Clouds
12:52 PM 71.1 °F 52.0 °F 51% 30.17 in 10.0 mi Variable 6.9 mph - N/A   Clear
1:52 PM 73.0 °F 52.0 °F 48% 30.13 in 10.0 mi ENE 8.1 mph - N/A   Clear
2:52 PM 75.0 °F 50.0 °F 41% 30.12 in 10.0 mi North 8.1 mph - N/A   Clear
3:52 PM 75.0 °F 48.9 °F 40% 30.11 in 10.0 mi North 4.6 mph - N/A   Clear
4:52 PM 75.0 °F 48.9 °F 40% 30.12 in 10.0 mi NNW 4.6 mph - N/A   Clear
5:52 PM 69.8 °F 48.2 °F 46% 30.13 in 10.0 mi NNW 6.9 mph - N/A   Clear
6:52 PM 64.0 °F 46.9 °F 54% 30.12 in 10.0 mi North 5.8 mph - N/A   Clear
7:52 PM 60.1 °F 48.0 °F 64% 30.14 in 10.0 mi North 4.6 mph - N/A   Clear
8:52 PM 60.1 °F 45.0 °F 57% 30.16 in 10.0 mi NNE 8.1 mph - N/A   Clear
9:52 PM 57.9 °F 45.0 °F 62% 30.16 in 10.0 mi NNE 3.5 mph - N/A   Clear
10:52 PM 57.0 °F 46.0 °F 67% 30.16 in 10.0 mi NNE 4.6 mph - N/A   Partly Cloudy
11:52 PM 57.9 °F 45.0 °F 62% 30.16 in 10.0 mi NE 5.8 mph - N/A   Mostly Cloudy